Showing default

OPS 2222, 3334

Orbit data source: Space-Track

OPS 2222, 3334 is an American payload satellite in GEO that was launched on Tue, 06 Aug 1968 UTC via an ATLAS SLV-3A AGENA D launch vehicle from the Air Force Eastern Test Range (AFETR). Payload-class satellites include a variety of spacecraft equipped with specific instruments for various scientific and technological missions. These include communications satellites like Starlink; space stations such as the ISS; scientific satellites like the Hubble; Earth observation satellites from companies like Planet Labs, Umbra, and HawkEye 360; GPS; miniature CubeSats for education and research; and military/defense satellites.

Not visible in the next 10 days
Identifier
3334, 1968-063A
Orbit
GEO
Last TLE update
11 hours ago
Origin
Manufacturer
LMSC?
Mission
Non-operational Defense Sigint
Bus & Motor
CANYON, Unknown motor
Mass
~240 kg wet, ~200 kg dry
Launch date (UTC)
1968-08-06 (57 years ago)
Launch vehicle
ATLAS SLV-3A AGENA D
Launch site
Air Force Eastern Test Range (AFETR)
Object type
Payload
Rocket body
Debris
Shape & HBR
Cyl, 1.7 m
Radar Cross Section
2.639 m²

Expand to show TLE details & history

TLE from 11 hours ago
0 OPS 2222
1 03334U 68063A   25181.56910911 -.00000168  00000-0  00000-0 0  9991
2 03334   6.8196 286.3178 0917597 221.3368  68.8562  0.99250439 22632
Epoch: 2025-06-30T13:39Z
TLE epoch observation values (Epoch: 2025-06-30T13:39:31.027Z)
Latitude
-5.89933°
Longitude
103.12009°
Altitude
35,013.719 km
Speed
3.142 km/s
True Right ascension
15h 07m 30s
True Declination
-5° 53' 36"
Sunlit
Object was in daylight at epoch
Visualization orbit readout
Latitude
6.75176°
Longitude
-115.97209°
Altitude
38,876.628 km
Speed
2.868 km/s
Apparent Right ascension
00h 27m 36s
Apparent Declination
1° 25' 56"
Sunlit
Object is in daylight
Visualization observer readout
Local Sidereal Time
11:55:07
Azimuth
347.821° N
Elevation
-47.99°
Doppler factor
1
Orbital elements
Apogee altitude
39,972.04 km
Perigee altitude
32,180.805 km
Semi-major axis
42,454.559 km
Eccentricity
0.09176
Inclination
6.8196°
RAAN
286.3178°
Arg. of periapsis
221.3368°
True anomaly
Unknown
Mean anomaly
68.8562°
Eccentric anomaly
Unknown
Mean motion
0.24812 °/min
Orbital period
1,450.93 mins
BSTAR
0
Loading historical data...
3334 neighbors
Loading maneuver chart data...
Loading SW <> Apogee altitude chart data...
Loading historical data...
Loading historical data...
Loading historical data...
Loading historical data...
Loading historical data...
Loading historical data...
Loading historical data...
Other satellites on launch #63 in the year 1968 (1968-08-06 UTC)

OPS 2222 Visibility

Observer location: undefined°, undefined°

OPS 2222 is likely not visible in the next few days
Span
Click to sort rows by Start time (UTC) header in descending order
Start Az.
Max El. time (UTC)
Max El. Az.
Max El.
End time (UTC)
End Az.
|